Location: Assche-ter-Heiden
(50.9174°N, 4.1574°E)
Time: 21:27:10
(UTC+00:00)

Cosmos 1437 - Pass Details

Date: 20 January 2020
Orbit: 377 x 381 km, 81.2° (Epoch: 27 February)

Event Time Altitude Azimuth Distance (km) Brightness Sun altitude
Exits shadow 06:12:48 - 354° (N) 2,175 6.2 -12.7°
Reaches altitude 10° 06:14:41 10° 3° (N) 1,405 5.3 -12.4°
Maximum altitude 06:17:33 36° 73° (ENE) 619 4.1 -12.0°
Drops below altitude 10° 06:20:23 10° 142° (SE) 1,391 6.3 -11.6°
Sets 06:22:26 0° 151° (SSE) 2,237 7.2 -11.3°
